sat.trackr.live / text

‹ back to catalog

JILIN-1 03

NORAD 41914 · 2017-002B

PAYLOAD ACTIVE UNKNOWN

§ Identity

Operator
Country
PRC
Launch date
2017-01-09
Launch site
JSC
Launch vehicle
Mass (kg)
RCS (m²)
0.44

External: N2YO · Heavens-Above · Gunter

§ Orbital elements

Epoch: 2026-05-25T04:08:37.633056Z

Period
93.45 min
Inclination
97.1956°
Eccentricity
0.0003823
Mean motion
15.40943674 rev/d
Perigee alt
440.7 km
Apogee alt
445.9 km
Semi-major
6,821.5 km
B*
3.0572e-4
RAAN
152.5922°
Arg perigee
243.9666°
Mean anomaly
116.1188°
Rev number
51,831

§ Raw data

JILIN-1 031 41914U 17002B   26145.17265779  .00012508  00000+0  30572-3 0  99962 41914  97.1956 152.5922 0003823 243.9666 116.1188 15.40943674518313

JSON: /api/v1/satellites/41914 · /tle

For live sub-satellite position, see the globe view (requires WebGL).

§ Visibility from observer

Set your observer location to see the next 7 days of passes ≥ 10°. The values pass through the URL so the page stays shareable.

No JS? Fill the form by hand. The geolocation button needs JavaScript.

§ Radio — SatNOGS DB

ModeDescriptionDownlinkUplink
BPSK Telemetry 2.267 GHz

1 transmitter · refreshed weekly from db.satnogs.org